Time,TemperatureF,DewpointF,PressureIn,WindDirection,WindDirectionDegrees,WindSpeedMPH,WindSpeedGustMPH,Humidity,HourlyPrecipIn,Conditions,Clouds,dailyrainin,SolarRadiationWatts/m^2,SoftwareType,DateUTC
2013-03-10 00:00:00,50.5,29.9,30.12,SSE,152,6.0,12.0,45,0.00,RA,,0.00,0.0,WeatherDisplay:10.37,2013-03-10 05:00:00,
2013-03-10 00:05:00,50.4,29.8,30.11,SSE,156,5.7,6.0,45,0.00,RA,,0.00,0.0,WeatherDisplay:10.37,2013-03-10 05:05:00,
2013-03-10 00:10:00,50.5,29.9,30.11,SSW,202,8.0,12.7,45,0.00,OVC,,0.00,0.0,WeatherDisplay:10.37,2013-03-10 05:10:00,
2013-03-10 00:15:00,50.5,29.9,30.12,SE,145,7.8,13.8,45,0.00,OVC,,0.00,0.0,WeatherDisplay:10.37,2013-03-10 05:15:00,
2013-03-10 00:20:00,50.5,29.9,30.11,SSE,148,9.1,12.7,45,0.00,OVC,,0.00,0.0,WeatherDisplay:10.37,2013-03-10 05:20:00,
2013-03-10 00:25:00,50.5,30.5,30.11,SE,144,4.8,11.5,46,0.00,OVC,,0.00,0.0,WeatherDisplay:10.37,2013-03-10 05:25:00,
2013-03-10 00:30:00,50.4,29.8,30.11,South,181,6.2,8.1,45,0.00,OVC,,0.00,0.0,WeatherDisplay:10.37,2013-03-10 05:30:00,
2013-03-10 00:35:00,50.3,30.3,30.11,South,178,8.3,15.0,46,0.00,OVC,,0.00,0.0,WeatherDisplay:10.37,2013-03-10 05:35:00,
2013-03-10 00:40:00,50.3,30.3,30.11,SSW,192,3.9,7.0,46,0.00,OVC,,0.00,0.0,WeatherDisplay:10.37,2013-03-10 05:40:00,
2013-03-10 00:45:00,50.2,30.2,30.11,SSW,199,6.1,10.4,46,0.00,OVC,,0.00,0.0,WeatherDisplay:10.37,2013-03-10 05:45:00,
2013-03-10 00:50:00,50.1,30.1,30.10,SSE,149,7.5,13.8,46,0.00,OVC,,0.00,0.0,WeatherDisplay:10.37,2013-03-10 05:50:00,
2013-03-10 00:55:00,50.1,30.6,30.10,South,172,3.9,5.8,47,0.00,OVC,,0.00,0.0,WeatherDisplay:10.37,2013-03-10 05:55:00,
2013-03-10 01:00:00,50.1,30.6,30.10,South,172,5.6,10.4,47,0.00,OVC,,0.00,0.0,WeatherDisplay:10.37,2013-03-10 06:00:00,
2013-03-10 01:05:00,50.0,30.5,30.10,South,183,5.9,6.9,47,0.00,OVC,,0.00,0.0,WeatherDisplay:10.37,2013-03-10 06:05:00,
2013-03-10 01:10:00,50.0,30.5,30.10,SSW,200,4.7,11.5,47,0.00,OVC,,0.00,0.0,WeatherDisplay:10.37,2013-03-10 06:10:00,
2013-03-10 01:15:00,50.1,30.1,30.10,SE,141,8.4,12.7,46,0.00,OVC,,0.00,0.0,WeatherDisplay:10.37,2013-03-10 06:15:00,
2013-03-10 01:20:00,50.0,30.0,30.10,SSE,155,8.9,10.4,46,0.00,OVC,,0.00,0.0,WeatherDisplay:10.37,2013-03-10 06:20:00,
2013-03-10 01:25:00,50.0,30.5,30.10,SSW,192,6.9,10.0,47,0.00,OVC,,0.00,0.0,WeatherDisplay:10.37,2013-03-10 06:25:00,
2013-03-10 01:30:00,49.9,30.5,30.10,South,169,6.7,10.4,47,0.00,OVC,,0.00,0.0,WeatherDisplay:10.37,2013-03-10 06:30:00,
2013-03-10 01:35:00,49.8,30.4,30.10,SE,144,5.0,11.5,47,0.00,OVC,,0.00,0.0,WeatherDisplay:10.37,2013-03-10 06:35:00,
2013-03-10 01:40:00,49.8,30.4,30.10,South,174,7.8,13.8,47,0.00,OVC,,0.00,0.0,WeatherDisplay:10.37,2013-03-10 06:40:00,
2013-03-10 01:45:00,49.9,29.9,30.10,SE,144,3.5,11.5,46,0.00,OVC,,0.00,0.0,WeatherDisplay:10.37,2013-03-10 06:45:00,
2013-03-10 01:50:00,49.9,30.5,30.10,SSE,160,7.2,11.5,47,0.00,OVC,,0.00,0.0,WeatherDisplay:10.37,2013-03-10 06:50:00,
2013-03-10 01:55:00,49.9,29.9,30.10,SSE,162,6.8,10.4,46,0.00,OVC,,0.00,0.0,WeatherDisplay:10.37,2013-03-10 06:55:00,
2013-03-10 03:00:00,50.0,30.5,30.09,SSE,164,4.4,6.9,47,0.00,OVC,,0.00,0.0,WeatherDisplay:10.37,2013-03-10 07:00:00,
2013-03-10 03:05:00,50.0,30.0,30.09,SW,219,4.2,9.2,46,0.00,BKN,,0.00,0.0,WeatherDisplay:10.37,2013-03-10 07:05:00,
2013-03-10 03:10:00,50.0,30.0,30.08,SSE,160,6.3,6.9,46,0.00,BKN,,0.00,0.0,WeatherDisplay:10.37,2013-03-10 07:10:00,
2013-03-10 03:15:00,50.1,30.1,30.08,SSE,161,5.6,10.4,46,0.00,BKN,,0.00,0.0,WeatherDisplay:10.37,2013-03-10 07:15:00,
2013-03-10 03:20:00,50.1,30.1,30.08,SSE,153,4.8,10.0,46,0.00,BKN,,0.00,0.0,WeatherDisplay:10.37,2013-03-10 07:20:00,
2013-03-10 03:25:00,50.1,29.6,30.08,SE,140,5.7,11.5,45,0.00,BKN,,0.00,0.0,WeatherDisplay:10.37,2013-03-10 07:25:00,
2013-03-10 03:30:00,50.2,29.7,30.07,SSE,165,5.8,10.4,45,0.00,BKN,,0.00,0.0,WeatherDisplay:10.37,2013-03-10 07:30:00,
2013-03-10 03:35:00,50.1,29.6,30.07,South,173,5.5,6.9,45,0.00,BKN,,0.00,0.0,WeatherDisplay:10.37,2013-03-10 07:35:00,
2013-03-10 03:40:00,50.1,29.6,30.07,SSE,150,6.8,12.7,45,0.00,BKN,,0.00,0.0,WeatherDisplay:10.37,2013-03-10 07:40:00,
2013-03-10 03:45:00,50.0,29.5,30.06,SSW,202,5.0,8.0,45,0.00,BKN,,0.00,0.0,WeatherDisplay:10.37,2013-03-10 07:45:00,
2013-03-10 03:50:00,49.9,29.4,30.07,South,181,7.7,9.2,45,0.00,BKN,,0.00,0.0,WeatherDisplay:10.37,2013-03-10 07:50:00,
2013-03-10 03:55:00,50.0,29.5,30.06,South,188,7.7,13.8,45,0.00,BKN,,0.00,0.0,WeatherDisplay:10.37,2013-03-10 07:55:00,
2013-03-10 04:00:00,50.0,29.5,30.06,SSE,164,5.6,11.0,45,0.00,BKN,,0.00,0.0,WeatherDisplay:10.37,2013-03-10 08:00:00,
2013-03-10 04:05:00,49.9,29.4,30.05,SE,125,5.6,11.5,45,0.00,BKN,,0.00,0.0,WeatherDisplay:10.37,2013-03-10 08:05:00,
2013-03-10 04:10:00,49.8,29.3,30.05,SSE,150,5.6,6.9,45,0.00,BKN,,0.00,0.0,WeatherDisplay:10.37,2013-03-10 08:10:00,
2013-03-10 04:15:00,49.9,29.4,30.05,SSE,163,5.9,9.2,45,0.00,BKN,,0.00,0.0,WeatherDisplay:10.37,2013-03-10 08:15:00,
2013-03-10 04:20:00,49.9,29.9,30.05,South,174,7.9,14.0,46,0.00,BKN,,0.00,0.0,WeatherDisplay:10.37,2013-03-10 08:20:00,
2013-03-10 04:25:00,50.0,29.5,30.04,South,184,8.8,12.7,45,0.00,BKN,,0.00,0.0,WeatherDisplay:10.37,2013-03-10 08:25:00,
2013-03-10 04:30:00,50.0,29.5,30.05,South,186,6.0,8.1,45,0.00,BKN,,0.00,0.0,WeatherDisplay:10.37,2013-03-10 08:30:00,
2013-03-10 04:35:00,49.9,29.4,30.04,South,178,6.3,11.5,45,0.00,BKN,,0.00,0.0,WeatherDisplay:10.37,2013-03-10 08:35:00,
2013-03-10 04:40:00,49.9,29.4,30.04,SSE,161,7.0,13.8,45,0.00,BKN,,0.00,0.0,WeatherDisplay:10.37,2013-03-10 08:40:00,
2013-03-10 04:45:00,49.9,29.4,30.05,SSE,162,9.7,11.5,45,0.00,BKN,,0.00,0.0,WeatherDisplay:10.37,2013-03-10 08:45:00,
2013-03-10 04:50:00,49.8,29.3,30.04,SSE,161,9.0,15.0,45,0.00,BKN,,0.00,0.0,WeatherDisplay:10.37,2013-03-10 08:50:00,
2013-03-10 04:55:00,49.8,29.8,30.04,South,177,5.8,6.9,46,0.00,BKN,,0.00,0.0,WeatherDisplay:10.37,2013-03-10 08:55:00,
2013-03-10 05:00:00,49.7,29.7,30.04,SSW,192,7.0,10.4,46,0.00,BKN,,0.00,0.0,WeatherDisplay:10.37,2013-03-10 09:00:00,
2013-03-10 05:05:00,49.7,29.7,30.04,SSE,164,7.4,13.8,46,0.00,BKN,,0.00,0.0,WeatherDisplay:10.37,2013-03-10 09:05:00,
2013-03-10 05:10:00,49.9,29.4,30.04,South,171,7.9,11.5,45,0.00,BKN,,0.00,0.0,WeatherDisplay:10.37,2013-03-10 09:10:00,
2013-03-10 05:15:00,50.0,29.5,30.05,SSE,161,5.8,11.5,45,0.00,BKN,,0.00,0.0,WeatherDisplay:10.37,2013-03-10 09:15:00,
2013-03-10 05:20:00,50.0,29.5,30.05,South,180,7.3,11.5,45,0.00,BKN,,0.00,0.0,WeatherDisplay:10.37,2013-03-10 09:20:00,
2013-03-10 05:25:00,50.0,29.5,30.05,South,182,7.8,11.5,45,0.00,BKN,,0.00,0.0,WeatherDisplay:10.37,2013-03-10 09:25:00,
2013-03-10 05:30:00,50.0,29.5,30.05,SSE,167,8.2,11.5,45,0.00,BKN,,0.00,0.0,WeatherDisplay:10.37,2013-03-10 09:30:00,
2013-03-10 05:35:00,50.1,29.6,30.05,South,172,7.2,12.7,45,0.00,BKN,,0.00,0.0,WeatherDisplay:10.37,2013-03-10 09:35:00,
2013-03-10 05:40:00,50.1,30.1,30.05,SSW,202,5.8,8.1,46,0.00,BKN,,0.00,0.0,WeatherDisplay:10.37,2013-03-10 09:40:00,
2013-03-10 05:45:00,50.0,30.0,30.06,South,181,4.0,8.1,46,0.00,BKN,,0.00,0.0,WeatherDisplay:10.37,2013-03-10 09:45:00,
2013-03-10 05:50:00,50.0,30.0,30.06,South,179,5.3,9.2,46,0.00,BKN,,0.00,0.0,WeatherDisplay:10.37,2013-03-10 09:50:00,
2013-03-10 05:55:00,50.0,30.0,30.06,South,173,6.3,11.5,46,0.00,BKN,,0.00,0.0,WeatherDisplay:10.37,2013-03-10 09:55:00,
2013-03-10 06:00:00,50.0,30.0,30.06,SSW,197,6.9,11.5,46,0.00,BKN,,0.00,0.0,WeatherDisplay:10.37,2013-03-10 10:00:00,
2013-03-10 06:05:00,50.0,30.0,30.06,SSE,167,6.8,9.2,46,0.00,FEW,,0.00,0.0,WeatherDisplay:10.37,2013-03-10 10:05:00,
2013-03-10 06:10:00,50.0,30.0,30.05,SE,140,4.1,5.8,46,0.00,FEW,,0.00,0.0,WeatherDisplay:10.37,2013-03-10 10:10:00,
2013-03-10 06:15:00,50.1,30.1,30.06,South,172,9.7,12.7,46,0.00,FEW,,0.00,0.0,WeatherDisplay:10.37,2013-03-10 10:15:00,
2013-03-10 06:20:00,50.1,30.1,30.06,South,190,5.6,7.0,46,0.00,FEW,,0.00,0.0,WeatherDisplay:10.37,2013-03-10 10:20:00,
2013-03-10 06:25:00,50.2,30.7,30.06,SSW,194,6.1,10.0,47,0.00,FEW,,0.00,0.0,WeatherDisplay:10.37,2013-03-10 10:25:00,
2013-03-10 06:30:00,50.4,30.4,30.06,WSW,238,4.4,11.5,46,0.00,FEW,,0.00,0.0,WeatherDisplay:10.37,2013-03-10 10:30:00,
2013-03-10 06:35:00,50.6,30.6,30.06,SE,139,6.5,8.1,46,0.00,FEW,,0.00,0.0,WeatherDisplay:10.37,2013-03-10 10:35:00,
2013-03-10 06:40:00,50.6,31.1,30.06,SSE,167,5.2,7.0,47,0.00,FEW,,0.00,0.0,WeatherDisplay:10.37,2013-03-10 10:40:00,
2013-03-10 06:45:00,50.6,30.6,30.06,South,173,6.0,9.2,46,0.00,FEW,,0.00,0.0,WeatherDisplay:10.37,2013-03-10 10:45:00,
2013-03-10 06:50:00,50.8,30.7,30.07,South,169,6.2,9.2,46,0.00,FEW,,0.00,0.0,WeatherDisplay:10.37,2013-03-10 10:50:00,
2013-03-10 06:55:00,50.9,30.8,30.07,South,188,5.7,9.0,46,0.00,FEW,,0.00,0.0,WeatherDisplay:10.37,2013-03-10 10:55:00,
2013-03-10 07:00:00,50.9,30.8,30.07,South,175,6.5,9.0,46,0.00,FEW,,0.00,0.0,WeatherDisplay:10.37,2013-03-10 11:00:00,
2013-03-10 07:05:00,50.9,30.8,30.07,SSW,211,5.9,10.4,46,0.00,OVC,,0.00,0.0,WeatherDisplay:10.37,2013-03-10 11:05:00,
2013-03-10 07:10:00,50.9,30.8,30.07,SSW,203,5.6,11.5,46,0.00,OVC,,0.00,0.0,WeatherDisplay:10.37,2013-03-10 11:10:00,
2013-03-10 07:15:00,51.0,30.9,30.07,South,172,7.8,12.7,46,0.00,OVC,,0.00,0.0,WeatherDisplay:10.37,2013-03-10 11:15:00,
2013-03-10 07:20:00,51.0,30.9,30.07,South,172,7.1,11.5,46,0.00,OVC,,0.00,0.0,WeatherDisplay:10.37,2013-03-10 11:20:00,
2013-03-10 07:25:00,51.2,31.1,30.07,SSW,197,5.9,9.2,46,0.00,OVC,,0.00,0.0,WeatherDisplay:10.37,2013-03-10 11:25:00,
2013-03-10 07:30:00,51.4,31.3,30.07,SSW,199,9.6,13.8,46,0.00,OVC,,0.00,0.0,WeatherDisplay:10.37,2013-03-10 11:30:00,
2013-03-10 07:35:00,51.5,32.4,30.07,SSE,167,8.5,15.0,48,0.00,OVC,,0.00,0.0,WeatherDisplay:10.37,2013-03-10 11:35:00,
2013-03-10 07:40:00,51.4,31.8,30.06,South,191,7.8,10.4,47,0.00,OVC,,0.00,0.0,WeatherDisplay:10.37,2013-03-10 11:40:00,
2013-03-10 07:45:00,51.4,31.8,30.06,South,183,6.5,9.2,47,0.00,OVC,,0.00,0.0,WeatherDisplay:10.37,2013-03-10 11:45:00,
2013-03-10 07:50:00,51.4,31.8,30.06,South,188,5.8,11.5,47,0.00,OVC,,0.00,0.0,WeatherDisplay:10.37,2013-03-10 11:50:00,
2013-03-10 07:55:00,51.4,31.8,30.06,South,178,8.5,11.5,47,0.00,OVC,,0.00,0.0,WeatherDisplay:10.37,2013-03-10 11:55:00,
2013-03-10 08:00:00,51.4,32.3,30.06,SSE,151,5.8,9.0,48,0.00,OVC,,0.00,0.0,WeatherDisplay:10.37,2013-03-10 12:00:00,
2013-03-10 08:05:00,51.5,33.0,30.06,SSE,165,8.3,11.5,49,0.00,OVC,,0.00,0.0,WeatherDisplay:10.37,2013-03-10 12:05:00,
2013-03-10 08:10:00,51.6,33.0,30.06,SSW,196,6.7,11.5,49,0.00,OVC,,0.00,5.0,WeatherDisplay:10.37,2013-03-10 12:10:00,
2013-03-10 08:15:00,51.5,33.5,30.06,South,170,6.2,10.4,50,0.00,OVC,,0.00,9.0,WeatherDisplay:10.37,2013-03-10 12:15:00,
2013-03-10 08:20:00,51.5,34.0,30.06,SSW,202,5.4,7.0,51,0.00,OVC,,0.00,11.0,WeatherDisplay:10.37,2013-03-10 12:20:00,
2013-03-10 08:25:00,51.5,34.9,30.06,South,186,7.6,11.5,53,0.00,OVC,,0.00,16.0,WeatherDisplay:10.37,2013-03-10 12:25:00,
2013-03-10 08:30:00,51.4,34.8,30.07,SE,146,6.0,9.2,53,0.00,OVC,,0.00,26.0,WeatherDisplay:10.37,2013-03-10 12:30:00,
2013-03-10 08:35:00,51.3,35.7,30.07,SSW,210,6.4,8.1,55,0.00,OVC,,0.00,42.0,WeatherDisplay:10.37,2013-03-10 12:35:00,
2013-03-10 08:40:00,51.2,36.0,30.07,SSE,160,6.6,11.5,56,0.00,OVC,,0.00,46.0,WeatherDisplay:10.37,2013-03-10 12:40:00,
2013-03-10 08:45:00,51.1,35.9,30.06,South,182,6.0,8.1,56,0.00,OVC,,0.00,56.0,WeatherDisplay:10.37,2013-03-10 12:45:00,
2013-03-10 08:50:00,51.0,36.3,30.07,SSE,147,4.7,10.4,57,0.00,OVC,,0.00,65.0,WeatherDisplay:10.37,2013-03-10 12:50:00,
2013-03-10 08:55:00,51.0,35.8,30.07,South,182,7.5,11.5,56,0.00,OVC,,0.00,100.0,WeatherDisplay:10.37,2013-03-10 12:55:00,
2013-03-10 09:00:00,51.0,35.8,30.07,South,169,6.2,9.0,56,0.00,OVC,,0.00,74.0,WeatherDisplay:10.37,2013-03-10 13:00:00,
2013-03-10 09:05:00,51.1,35.5,30.07,South,171,8.8,12.7,55,0.00,OVC,,0.00,63.0,WeatherDisplay:10.37,2013-03-10 13:05:00,
2013-03-10 09:10:00,51.1,35.5,30.07,South,190,10.4,15.0,55,0.00,OVC,,0.00,67.0,WeatherDisplay:10.37,2013-03-10 13:10:00,
2013-03-10 09:15:00,51.2,35.1,30.07,South,187,8.2,16.1,54,0.00,OVC,,0.00,83.0,WeatherDisplay:10.37,2013-03-10 13:15:00,
2013-03-10 09:20:00,51.3,35.2,30.07,South,187,7.2,11.5,54,0.00,OVC,,0.00,70.0,WeatherDisplay:10.37,2013-03-10 13:20:00,
2013-03-10 09:25:00,51.4,34.8,30.08,SSW,192,6.4,10.4,53,0.00,OVC,,0.00,70.0,WeatherDisplay:10.37,2013-03-10 13:25:00,
2013-03-10 09:30:00,51.6,34.5,30.08,SSW,204,4.7,10.4,52,0.00,OVC,,0.00,81.0,WeatherDisplay:10.37,2013-03-10 13:30:00,
2013-03-10 09:35:00,51.8,34.2,30.08,South,184,6.2,10.4,51,0.00,OVC,,0.00,81.0,WeatherDisplay:10.37,2013-03-10 13:35:00,
2013-03-10 09:40:00,52.1,34.0,30.08,South,189,8.9,12.7,50,0.00,OVC,,0.00,81.0,WeatherDisplay:10.37,2013-03-10 13:40:00,
2013-03-10 09:45:00,52.3,33.7,30.08,SSW,198,8.9,12.7,49,0.00,OVC,,0.00,76.0,WeatherDisplay:10.37,2013-03-10 13:45:00,
2013-03-10 09:50:00,52.7,33.5,30.07,South,186,9.0,15.0,48,0.00,OVC,,0.00,151.0,WeatherDisplay:10.37,2013-03-10 13:50:00,
2013-03-10 09:55:00,53.1,33.9,30.07,SSW,200,9.6,15.0,48,0.00,OVC,,0.00,79.0,WeatherDisplay:10.37,2013-03-10 13:55:00,
2013-03-10 10:00:00,53.5,33.7,30.07,SSW,193,5.1,9.2,47,0.00,OVC,,0.00,204.0,WeatherDisplay:10.37,2013-03-10 14:00:00,
2013-03-10 10:05:00,54.4,34.0,30.07,SSE,163,8.0,11.5,46,0.00,BKN,,0.00,162.0,WeatherDisplay:10.37,2013-03-10 14:05:00,
2013-03-10 10:10:00,55.3,34.3,30.07,South,178,9.6,11.5,45,0.00,BKN,,0.00,204.0,WeatherDisplay:10.37,2013-03-10 14:10:00,
2013-03-10 10:15:00,55.8,34.2,30.07,SSE,163,8.0,15.0,44,0.00,BKN,,0.00,244.0,WeatherDisplay:10.37,2013-03-10 14:15:00,
2013-03-10 10:20:00,56.5,34.8,30.07,South,183,8.4,15.0,44,0.00,BKN,,0.00,207.0,WeatherDisplay:10.37,2013-03-10 14:20:00,
2013-03-10 10:25:00,56.9,34.6,30.07,SW,214,6.2,8.0,43,0.00,BKN,,0.00,163.0,WeatherDisplay:10.37,2013-03-10 14:25:00,
2013-03-10 10:30:00,57.1,34.8,30.07,SW,219,6.2,10.4,43,0.00,BKN,,0.00,130.0,WeatherDisplay:10.37,2013-03-10 14:30:00,
2013-03-10 10:35:00,57.5,34.6,30.07,South,174,7.7,11.5,42,0.00,BKN,,0.00,167.0,WeatherDisplay:10.37,2013-03-10 14:35:00,
2013-03-10 10:40:00,57.6,35.2,30.07,SSW,194,11.2,19.6,43,0.00,BKN,,0.00,153.0,WeatherDisplay:10.37,2013-03-10 14:40:00,
2013-03-10 10:45:00,57.8,34.8,30.07,SSW,201,7.3,12.7,42,0.00,BKN,,0.00,163.0,WeatherDisplay:10.37,2013-03-10 14:45:00,
2013-03-10 10:50:00,58.1,35.1,30.07,South,179,8.0,13.8,42,0.00,BKN,,0.00,181.0,WeatherDisplay:10.37,2013-03-10 14:50:00,
2013-03-10 10:55:00,58.5,35.5,30.07,South,190,9.5,12.7,42,0.00,BKN,,0.00,338.0,WeatherDisplay:10.37,2013-03-10 14:55:00,
2013-03-10 11:00:00,58.8,35.1,30.07,SSW,199,9.9,13.8,41,0.00,BKN,,0.00,318.0,WeatherDisplay:10.37,2013-03-10 15:00:00,
2013-03-10 11:05:00,59.1,35.4,30.07,SW,219,7.0,10.4,41,0.00,BKN,,0.00,181.0,WeatherDisplay:10.37,2013-03-10 15:05:00,
2013-03-10 11:10:00,59.3,35.6,30.06,SSW,210,7.1,12.7,41,0.00,BKN,,0.00,243.0,WeatherDisplay:10.37,2013-03-10 15:10:00,
2013-03-10 11:15:00,59.4,35.7,30.06,SSW,197,7.4,11.5,41,0.00,BKN,,0.00,330.0,WeatherDisplay:10.37,2013-03-10 15:15:00,
2013-03-10 11:20:00,59.9,36.1,30.06,SSW,212,7.8,16.1,41,0.00,BKN,,0.00,334.0,WeatherDisplay:10.37,2013-03-10 15:20:00,
2013-03-10 11:25:00,60.4,35.9,30.05,SE,146,9.5,16.0,40,0.00,BKN,,0.00,155.0,WeatherDisplay:10.37,2013-03-10 15:25:00,
2013-03-10 11:30:00,60.5,36.0,30.05,SSW,195,8.1,13.0,40,0.00,BKN,,0.00,197.0,WeatherDisplay:10.37,2013-03-10 15:30:00,
2013-03-10 11:35:00,61.0,35.8,30.05,SSW,209,6.9,11.5,39,0.00,BKN,,0.00,330.0,WeatherDisplay:10.37,2013-03-10 15:35:00,
2013-03-10 11:40:00,61.4,36.2,30.05,SSW,211,5.6,10.4,39,0.00,BKN,,0.00,359.0,WeatherDisplay:10.37,2013-03-10 15:40:00,
2013-03-10 11:45:00,61.7,36.5,30.05,SSE,159,6.8,12.7,39,0.00,BKN,,0.00,388.0,WeatherDisplay:10.37,2013-03-10 15:45:00,
2013-03-10 11:50:00,62.1,37.5,30.05,South,190,6.1,9.2,40,0.00,BKN,,0.00,315.0,WeatherDisplay:10.37,2013-03-10 15:50:00,
2013-03-10 11:55:00,62.3,37.0,30.04,South,181,6.6,10.0,39,0.00,BKN,,0.00,295.0,WeatherDisplay:10.37,2013-03-10 15:55:00,
2013-03-10 12:00:00,62.3,36.4,30.04,SSE,165,5.5,11.5,38,0.00,BKN,,0.00,374.0,WeatherDisplay:10.37,2013-03-10 16:00:00,
2013-03-10 12:05:00,62.8,37.5,30.04,South,184,5.5,12.7,39,0.00,CLR,,0.00,346.0,WeatherDisplay:10.37,2013-03-10 16:05:00,
2013-03-10 12:11:00,62.6,36.6,30.03,SW,227,5.9,10.4,38,0.00,CLR,,0.00,229.0,WeatherDisplay:10.37,2013-03-10 16:11:00,
2013-03-10 12:16:00,62.1,36.2,30.03,SSW,210,8.7,13.8,38,0.00,CLR,,0.00,260.0,WeatherDisplay:10.37,2013-03-10 16:16:00,
2013-03-10 12:21:00,62.0,36.7,30.03,South,190,7.2,11.5,39,0.00,CLR,,0.00,308.0,WeatherDisplay:10.37,2013-03-10 16:21:00,
2013-03-10 12:26:00,63.0,37.0,30.03,SSW,195,7.6,11.5,38,0.00,CLR,,0.00,144.0,WeatherDisplay:10.37,2013-03-10 16:26:00,
2013-03-10 12:31:00,64.0,37.9,30.02,South,178,9.5,16.1,38,0.00,CLR,,0.00,413.0,WeatherDisplay:10.37,2013-03-10 16:31:00,
2013-03-10 12:36:00,64.4,37.5,30.02,SSW,197,5.8,9.2,37,0.00,CLR,,0.00,241.0,WeatherDisplay:10.37,2013-03-10 16:36:00,
2013-03-10 12:41:00,64.7,37.8,30.01,South,188,7.8,12.7,37,0.00,CLR,,0.00,272.0,WeatherDisplay:10.37,2013-03-10 16:41:00,
2013-03-10 12:46:00,64.6,37.0,30.02,SSW,196,7.4,11.5,36,0.00,CLR,,0.00,204.0,WeatherDisplay:10.37,2013-03-10 16:46:00,
2013-03-10 12:51:00,64.7,37.8,30.02,South,180,9.3,14.0,37,0.00,CLR,,0.00,367.0,WeatherDisplay:10.37,2013-03-10 16:51:00,
2013-03-10 12:56:00,64.9,38.0,30.02,SSW,195,9.0,17.0,37,0.00,CLR,,0.00,308.0,WeatherDisplay:10.37,2013-03-10 16:56:00,
2013-03-10 13:01:00,65.0,38.8,30.01,South,173,7.3,14.0,38,0.00,BKN,,0.00,197.0,WeatherDisplay:10.37,2013-03-10 17:01:00,
2013-03-10 13:06:00,65.1,38.2,30.01,South,190,8.5,15.0,37,0.00,BKN,,0.00,149.0,WeatherDisplay:10.37,2013-03-10 17:06:00,
2013-03-10 13:11:00,65.2,38.3,30.01,SSE,147,6.1,8.1,37,0.00,BKN,,0.00,248.0,WeatherDisplay:10.37,2013-03-10 17:11:00,
2013-03-10 13:16:00,65.5,37.8,30.01,SW,221,12.5,19.6,36,0.00,BKN,,0.00,290.0,WeatherDisplay:10.37,2013-03-10 17:16:00,
2013-03-10 13:21:00,65.3,39.0,30.00,South,186,7.4,10.4,38,0.00,BKN,,0.00,172.0,WeatherDisplay:10.37,2013-03-10 17:21:00,
2013-03-10 13:26:00,65.9,38.2,30.00,SSW,204,8.2,13.8,36,0.00,BKN,,0.00,278.0,WeatherDisplay:10.37,2013-03-10 17:26:00,
2013-03-10 13:31:00,65.7,38.0,30.00,South,182,8.0,11.5,36,0.00,BKN,,0.00,320.0,WeatherDisplay:10.37,2013-03-10 17:31:00,
2013-03-10 13:36:00,65.8,38.1,30.00,South,186,7.1,13.0,36,0.00,BKN,,0.00,359.0,WeatherDisplay:10.37,2013-03-10 17:36:00,
2013-03-10 13:41:00,65.8,38.1,30.00,SW,227,8.1,13.8,36,0.00,BKN,,0.00,258.0,WeatherDisplay:10.37,2013-03-10 17:41:00,
2013-03-10 13:46:00,65.4,37.0,30.00,South,186,8.3,16.1,35,0.00,BKN,,0.00,369.0,WeatherDisplay:10.37,2013-03-10 17:46:00,
2013-03-10 13:51:00,65.2,36.1,29.99,South,180,8.9,15.0,34,0.00,BKN,,0.00,264.0,WeatherDisplay:10.37,2013-03-10 17:51:00,
2013-03-10 13:56:00,65.4,37.0,30.00,SSW,192,10.4,13.8,35,0.00,BKN,,0.00,279.0,WeatherDisplay:10.37,2013-03-10 17:56:00,
2013-03-10 14:01:00,65.6,37.2,29.99,South,174,9.7,12.7,35,0.00,BKN,,0.00,269.0,WeatherDisplay:10.37,2013-03-10 18:01:00,
2013-03-10 14:06:00,65.7,37.3,29.99,SSE,155,7.0,11.5,35,0.00,BKN,,0.00,316.0,WeatherDisplay:10.37,2013-03-10 18:06:00,
2013-03-10 14:11:00,65.5,37.1,29.99,South,186,7.6,11.5,35,0.00,BKN,,0.00,334.0,WeatherDisplay:10.37,2013-03-10 18:11:00,
2013-03-10 14:16:00,65.9,38.2,29.99,SSW,197,6.6,11.5,36,0.00,BKN,,0.00,534.0,WeatherDisplay:10.37,2013-03-10 18:16:00,
2013-03-10 14:21:00,66.3,37.8,29.99,SSW,209,8.1,13.8,35,0.00,BKN,,0.00,501.0,WeatherDisplay:10.37,2013-03-10 18:21:00,
2013-03-10 14:26:00,66.5,37.2,29.99,South,185,7.9,13.0,34,0.00,BKN,,0.00,374.0,WeatherDisplay:10.37,2013-03-10 18:26:00,
2013-03-10 14:31:00,66.5,38.0,29.98,SW,235,8.2,10.4,35,0.00,BKN,,0.00,543.0,WeatherDisplay:10.37,2013-03-10 18:31:00,
2013-03-10 14:36:00,66.1,37.6,29.98,SW,221,4.9,8.1,35,0.00,BKN,,0.00,325.0,WeatherDisplay:10.37,2013-03-10 18:36:00,
2013-03-10 14:41:00,65.8,36.6,29.98,WSW,242,11.3,15.0,34,0.00,BKN,,0.00,276.0,WeatherDisplay:10.37,2013-03-10 18:41:00,
2013-03-10 14:46:00,64.9,37.3,29.98,South,189,10.3,15.0,36,0.00,BKN,,0.00,281.0,WeatherDisplay:10.37,2013-03-10 18:46:00,
2013-03-10 14:51:00,64.7,36.4,29.98,WSW,241,6.8,11.5,35,0.00,BKN,,0.00,332.0,WeatherDisplay:10.37,2013-03-10 18:51:00,
2013-03-10 14:56:00,65.1,38.2,29.97,SW,217,5.3,6.9,37,0.00,BKN,,0.00,345.0,WeatherDisplay:10.37,2013-03-10 18:56:00,
2013-03-10 15:01:00,66.0,37.5,29.97,SSW,211,3.4,8.0,35,0.00,BKN,,0.00,381.0,WeatherDisplay:10.37,2013-03-10 19:01:00,
2013-03-10 15:06:00,66.6,38.1,29.97,SW,217,7.2,11.5,35,0.00,BKN,,0.00,480.0,WeatherDisplay:10.37,2013-03-10 19:06:00,
2013-03-10 15:11:00,67.2,37.9,29.97,SW,223,5.8,10.4,34,0.00,BKN,,0.00,568.0,WeatherDisplay:10.37,2013-03-10 19:11:00,
2013-03-10 15:16:00,67.8,37.6,29.97,SSW,213,11.1,16.1,33,0.00,BKN,,0.00,547.0,WeatherDisplay:10.37,2013-03-10 19:16:00,
2013-03-10 15:21:00,68.1,38.7,29.97,SE,136,6.2,11.5,34,0.00,BKN,,0.00,596.0,WeatherDisplay:10.37,2013-03-10 19:21:00,
2013-03-10 15:26:00,68.5,37.5,29.97,South,179,9.3,12.0,32,0.00,BKN,,0.00,650.0,WeatherDisplay:10.37,2013-03-10 19:26:00,
2013-03-10 15:31:00,68.5,38.2,29.97,North,360,9.6,16.1,33,0.00,BKN,,0.00,413.0,WeatherDisplay:10.37,2013-03-10 19:31:00,
2013-03-10 15:36:00,68.2,37.2,29.96,SSW,211,9.0,11.5,32,0.00,BKN,,0.00,371.0,WeatherDisplay:10.37,2013-03-10 19:36:00,
2013-03-10 15:41:00,67.9,36.9,29.96,South,173,8.6,21.9,32,0.00,BKN,,0.00,294.0,WeatherDisplay:10.37,2013-03-10 19:41:00,
2013-03-10 15:46:00,67.6,36.7,29.97,South,186,9.7,17.3,32,0.00,BKN,,0.00,304.0,WeatherDisplay:10.37,2013-03-10 19:46:00,
2013-03-10 15:52:00,67.6,35.9,29.97,SSW,210,5.1,12.7,31,0.00,BKN,,0.00,364.0,WeatherDisplay:10.37,2013-03-10 19:52:00,
2013-03-10 15:57:00,68.0,36.2,29.97,South,176,7.1,12.7,31,0.00,BKN,,0.00,257.0,WeatherDisplay:10.37,2013-03-10 19:57:00,
2013-03-10 16:02:00,67.7,36.8,29.97,South,175,9.5,10.4,32,0.00,BKN,,0.00,388.0,WeatherDisplay:10.37,2013-03-10 20:02:00,
2013-03-10 16:07:00,67.9,36.1,29.96,South,177,4.8,11.5,31,0.00,BKN,,0.00,322.0,WeatherDisplay:10.37,2013-03-10 20:07:00,
2013-03-10 16:12:00,67.8,36.0,29.96,SW,227,7.8,11.5,31,0.00,BKN,,0.00,334.0,WeatherDisplay:10.37,2013-03-10 20:12:00,
2013-03-10 16:17:00,68.2,37.2,29.96,South,187,7.7,11.5,32,0.00,BKN,,0.00,439.0,WeatherDisplay:10.37,2013-03-10 20:17:00,
2013-03-10 16:22:00,68.6,36.7,29.96,South,170,8.0,12.0,31,0.00,BKN,,0.00,406.0,WeatherDisplay:10.37,2013-03-10 20:22:00,
2013-03-10 16:27:00,68.6,36.7,29.96,SSE,164,7.0,16.0,31,0.00,BKN,,0.00,288.0,WeatherDisplay:10.37,2013-03-10 20:27:00,
2013-03-10 16:32:00,68.6,36.7,29.96,South,171,8.0,12.0,31,0.00,BKN,,0.00,197.0,WeatherDisplay:10.37,2013-03-10 20:32:00,
2013-03-10 16:37:00,68.1,36.3,29.97,South,186,8.0,10.0,31,0.00,BKN,,0.00,239.0,WeatherDisplay:10.37,2013-03-10 20:37:00,
2013-03-10 16:42:00,68.5,36.7,29.96,South,183,10.0,14.0,31,0.00,BKN,,0.00,214.0,WeatherDisplay:10.37,2013-03-10 20:42:00,
2013-03-10 16:47:00,68.8,36.9,29.96,South,187,10.0,13.0,31,0.00,BKN,,0.00,125.0,WeatherDisplay:10.37,2013-03-10 20:47:00,
2013-03-10 16:52:00,68.6,36.7,29.96,SSW,211,7.6,13.8,31,0.00,BKN,,0.00,299.0,WeatherDisplay:10.37,2013-03-10 20:52:00,
2013-03-10 16:57:00,68.8,37.7,29.96,SW,228,5.4,14.0,32,0.00,BKN,,0.00,148.0,WeatherDisplay:10.37,2013-03-10 20:57:00,
2013-03-10 17:02:00,68.9,37.0,29.97,SW,218,8.4,12.7,31,0.00,BKN,,0.00,127.0,WeatherDisplay:10.37,2013-03-10 21:02:00,
2013-03-10 17:07:00,68.1,37.1,29.96,SW,228,7.9,10.4,32,0.00,BKN,,0.00,169.0,WeatherDisplay:10.37,2013-03-10 21:07:00,
2013-03-10 17:12:00,67.6,36.7,29.96,ESE,123,8.4,13.8,32,0.00,BKN,,0.00,139.0,WeatherDisplay:10.37,2013-03-10 21:12:00,
2013-03-10 17:18:00,67.4,35.7,29.96,South,186,9.0,14.0,31,0.00,BKN,,0.00,102.0,WeatherDisplay:10.37,2013-03-10 21:18:00,
2013-03-10 17:23:00,67.2,36.3,29.96,South,189,6.3,10.0,32,0.00,BKN,,0.00,123.0,WeatherDisplay:10.37,2013-03-10 21:23:00,
2013-03-10 17:28:00,67.5,37.4,29.96,SW,231,5.1,10.4,33,0.00,BKN,,0.00,158.0,WeatherDisplay:10.37,2013-03-10 21:28:00,
2013-03-10 17:33:00,68.1,37.1,29.96,South,173,4.4,7.0,32,0.00,BKN,,0.00,139.0,WeatherDisplay:10.37,2013-03-10 21:33:00,
2013-03-10 17:38:00,68.1,37.1,29.95,SSW,194,6.4,11.5,32,0.00,BKN,,0.00,137.0,WeatherDisplay:10.37,2013-03-10 21:38:00,
2013-03-10 17:43:00,68.1,37.1,29.95,SSE,148,7.8,11.5,32,0.00,BKN,,0.00,151.0,WeatherDisplay:10.37,2013-03-10 21:43:00,
2013-03-10 17:48:00,68.3,38.1,29.95,South,182,4.5,9.2,33,0.00,BKN,,0.00,171.0,WeatherDisplay:10.37,2013-03-10 21:48:00,
2013-03-10 17:53:00,68.3,37.3,29.94,SSW,192,8.1,8.1,32,0.00,BKN,,0.00,135.0,WeatherDisplay:10.37,2013-03-10 21:53:00,
2013-03-10 17:58:00,67.9,36.9,29.94,SSE,161,6.8,11.5,32,0.00,BKN,,0.00,111.0,WeatherDisplay:10.37,2013-03-10 21:58:00,
2013-03-10 18:03:00,67.6,35.9,29.93,SSE,159,8.3,12.7,31,0.00,BKN,,0.00,104.0,WeatherDisplay:10.37,2013-03-10 22:03:00,
2013-03-10 18:08:00,67.3,35.6,29.93,South,183,4.5,8.1,31,0.00,BKN,,0.00,74.0,WeatherDisplay:10.37,2013-03-10 22:08:00,
2013-03-10 18:13:00,67.0,36.1,29.93,SSE,152,3.3,4.0,32,0.00,BKN,,0.00,63.0,WeatherDisplay:10.37,2013-03-10 22:13:00,
2013-03-10 18:18:00,66.8,36.8,29.93,South,179,5.9,9.0,33,0.00,BKN,,0.00,79.0,WeatherDisplay:10.37,2013-03-10 22:18:00,
2013-03-10 18:23:00,66.7,36.7,29.93,SSE,161,5.5,10.4,33,0.00,BKN,,0.00,79.0,WeatherDisplay:10.37,2013-03-10 22:23:00,
2013-03-10 18:28:00,66.4,37.2,29.94,SSE,165,3.2,5.8,34,0.00,BKN,,0.00,84.0,WeatherDisplay:10.37,2013-03-10 22:28:00,
2013-03-10 18:33:00,66.3,36.3,29.93,SSE,164,5.5,11.5,33,0.00,BKN,,0.00,70.0,WeatherDisplay:10.37,2013-03-10 22:33:00,
2013-03-10 18:38:00,66.3,37.1,29.94,SSW,207,3.8,9.2,34,0.00,BKN,,0.00,53.0,WeatherDisplay:10.37,2013-03-10 22:38:00,
2013-03-10 18:43:00,66.2,37.0,29.94,SSW,205,4.2,9.2,34,0.00,BKN,,0.00,47.0,WeatherDisplay:10.37,2013-03-10 22:43:00,
2013-03-10 18:48:00,66.1,36.9,29.94,South,169,5.9,10.4,34,0.00,BKN,,0.00,32.0,WeatherDisplay:10.37,2013-03-10 22:48:00,
2013-03-10 18:53:00,66.0,36.8,29.94,South,186,6.2,8.1,34,0.00,BKN,,0.00,26.0,WeatherDisplay:10.37,2013-03-10 22:53:00,
2013-03-10 18:58:00,65.9,37.5,29.94,SE,146,4.3,8.1,35,0.00,BKN,,0.00,25.0,WeatherDisplay:10.37,2013-03-10 22:58:00,
2013-03-10 19:03:00,65.8,37.4,29.93,SSE,158,4.6,6.9,35,0.00,BKN,,0.00,21.0,WeatherDisplay:10.37,2013-03-10 23:03:00,
2013-03-10 19:08:00,65.6,37.2,29.92,SE,137,5.3,9.0,35,0.00,BKN,,0.00,12.0,WeatherDisplay:10.37,2013-03-10 23:08:00,
2013-03-10 19:13:00,65.4,37.0,29.93,South,184,6.5,10.4,35,0.00,BKN,,0.00,5.0,WeatherDisplay:10.37,2013-03-10 23:13:00,
2013-03-10 19:18:00,65.3,36.9,29.93,SSE,150,5.2,5.2,35,0.00,BKN,,0.00,0.0,WeatherDisplay:10.37,2013-03-10 23:18:00,
2013-03-10 19:23:00,65.2,36.8,29.93,South,177,6.6,7.0,35,0.00,BKN,,0.00,0.0,WeatherDisplay:10.37,2013-03-10 23:23:00,
2013-03-10 19:28:00,65.0,36.7,29.93,South,190,3.8,10.4,35,0.00,BKN,,0.00,0.0,WeatherDisplay:10.37,2013-03-10 23:28:00,
2013-03-10 19:33:00,64.8,36.5,29.92,South,169,4.6,11.0,35,0.00,BKN,,0.00,0.0,WeatherDisplay:10.37,2013-03-10 23:33:00,
2013-03-10 19:38:00,64.6,36.3,29.93,SSE,149,2.2,4.0,35,0.00,BKN,,0.00,0.0,WeatherDisplay:10.37,2013-03-10 23:38:00,
2013-03-10 19:43:00,64.2,36.0,29.93,SSE,161,5.5,6.0,35,0.00,BKN,,0.00,0.0,WeatherDisplay:10.37,2013-03-10 23:43:00,
2013-03-10 19:48:00,63.8,35.6,29.93,South,184,4.7,6.9,35,0.00,BKN,,0.00,0.0,WeatherDisplay:10.37,2013-03-10 23:48:00,
2013-03-10 19:53:00,63.4,36.0,29.93,South,187,2.8,6.9,36,0.00,BKN,,0.00,0.0,WeatherDisplay:10.37,2013-03-10 23:53:00,
2013-03-10 19:58:00,63.0,35.6,29.93,South,190,1.7,2.3,36,0.00,BKN,,0.00,0.0,WeatherDisplay:10.37,2013-03-10 23:58:00,
2013-03-10 20:03:00,62.7,36.0,29.93,SSW,207,1.9,4.0,37,0.00,BKN,,0.00,0.0,WeatherDisplay:10.37,2013-03-11 00:03:00,
2013-03-10 20:08:00,62.6,35.9,29.92,South,171,1.9,3.5,37,0.00,BKN,,0.00,0.0,WeatherDisplay:10.37,2013-03-11 00:08:00,
2013-03-10 20:13:00,62.2,35.6,29.92,SSE,165,2.3,3.0,37,0.00,BKN,,0.00,0.0,WeatherDisplay:10.37,2013-03-11 00:13:00,
2013-03-10 20:18:00,61.8,35.9,29.92,SSE,167,1.5,3.5,38,0.00,BKN,,0.00,0.0,WeatherDisplay:10.37,2013-03-11 00:18:00,
2013-03-10 20:23:00,61.1,35.9,29.91,SSE,167,1.0,2.3,39,0.00,BKN,,0.00,0.0,WeatherDisplay:10.37,2013-03-11 00:23:00,
2013-03-10 20:28:00,60.3,36.5,29.92,SSE,167,1.1,2.3,41,0.00,BKN,,0.00,0.0,WeatherDisplay:10.37,2013-03-11 00:28:00,
2013-03-10 20:33:00,59.7,35.9,29.91,SSE,167,1.1,2.3,41,0.00,BKN,,0.00,0.0,WeatherDisplay:10.37,2013-03-11 00:33:00,
2013-03-10 20:38:00,59.5,36.4,29.91,SSE,165,0.5,1.1,42,0.00,BKN,,0.00,0.0,WeatherDisplay:10.37,2013-03-11 00:38:00,
2013-03-10 20:43:00,59.3,36.2,29.91,SE,145,1.7,3.5,42,0.00,BKN,,0.00,0.0,WeatherDisplay:10.37,2013-03-11 00:43:00,
2013-03-10 20:48:00,59.3,36.2,29.91,SE,142,2.6,3.5,42,0.00,BKN,,0.00,0.0,WeatherDisplay:10.37,2013-03-11 00:48:00,
2013-03-10 20:53:00,59.8,36.6,29.90,SE,140,2.7,3.5,42,0.00,BKN,,0.00,0.0,WeatherDisplay:10.37,2013-03-11 00:53:00,
2013-03-10 20:58:00,60.3,35.9,29.91,SSE,165,1.5,4.6,40,0.00,BKN,,0.00,0.0,WeatherDisplay:10.37,2013-03-11 00:58:00,
2013-03-10 21:03:00,60.8,36.3,29.90,SSE,163,3.5,5.8,40,0.00,BKN,,0.00,0.0,WeatherDisplay:10.37,2013-03-11 01:03:00,
2013-03-10 21:08:00,61.1,36.6,29.90,SE,144,4.4,6.0,40,0.00,BKN,,0.00,0.0,WeatherDisplay:10.37,2013-03-11 01:08:00,
2013-03-10 21:14:00,61.5,36.3,29.90,SSE,167,5.0,8.0,39,0.00,BKN,,0.00,0.0,WeatherDisplay:10.37,2013-03-11 01:14:00,
2013-03-10 21:19:00,61.8,36.6,29.90,SSE,167,2.2,3.5,39,0.00,BKN,,0.00,0.0,WeatherDisplay:10.37,2013-03-11 01:19:00,
2013-03-10 21:24:00,62.2,35.6,29.90,SSE,148,3.9,6.9,37,0.00,BKN,,0.00,0.0,WeatherDisplay:10.37,2013-03-11 01:24:00,
2013-03-10 21:29:00,62.7,36.0,29.89,SE,146,6.0,6.0,37,0.00,BKN,,0.00,0.0,WeatherDisplay:10.37,2013-03-11 01:29:00,
2013-03-10 21:34:00,63.1,35.7,29.89,SSE,154,6.4,12.7,36,0.00,BKN,,0.00,0.0,WeatherDisplay:10.37,2013-03-11 01:34:00,
2013-03-10 21:39:00,63.3,35.9,29.89,SE,137,4.3,6.9,36,0.00,BKN,,0.00,0.0,WeatherDisplay:10.37,2013-03-11 01:39:00,
2013-03-10 21:44:00,63.4,35.2,29.89,South,180,5.2,8.1,35,0.00,BKN,,0.00,0.0,WeatherDisplay:10.37,2013-03-11 01:44:00,
2013-03-10 21:49:00,63.5,35.3,29.89,SSE,153,5.1,5.8,35,0.00,BKN,,0.00,0.0,WeatherDisplay:10.37,2013-03-11 01:49:00,
2013-03-10 21:54:00,63.6,35.4,29.89,SSE,168,3.4,11.5,35,0.00,BKN,,0.00,0.0,WeatherDisplay:10.37,2013-03-11 01:54:00,
2013-03-10 21:59:00,63.6,35.4,29.89,South,171,5.6,13.8,35,0.00,BKN,,0.00,0.0,WeatherDisplay:10.37,2013-03-11 01:59:00,
2013-03-10 22:04:00,63.5,35.3,29.88,SSE,157,6.3,8.1,35,0.00,OVC,,0.00,0.0,WeatherDisplay:10.37,2013-03-11 02:04:00,
2013-03-10 22:09:00,63.5,35.3,29.88,SSE,167,5.2,8.1,35,0.00,OVC,,0.00,0.0,WeatherDisplay:10.37,2013-03-11 02:09:00,
2013-03-10 22:14:00,63.5,35.3,29.88,SSE,162,4.5,8.1,35,0.00,OVC,,0.00,0.0,WeatherDisplay:10.37,2013-03-11 02:14:00,
2013-03-10 22:19:00,63.5,35.3,29.88,SW,220,2.6,6.9,35,0.00,OVC,,0.00,0.0,WeatherDisplay:10.37,2013-03-11 02:19:00,
2013-03-10 22:24:00,63.4,35.2,29.88,SE,136,5.3,8.1,35,0.00,OVC,,0.00,0.0,WeatherDisplay:10.37,2013-03-11 02:24:00,
2013-03-10 22:29:00,63.5,35.3,29.88,SE,142,5.8,6.9,35,0.00,OVC,,0.00,0.0,WeatherDisplay:10.37,2013-03-11 02:29:00,
2013-03-10 22:34:00,63.4,35.2,29.88,South,182,5.9,10.4,35,0.00,OVC,,0.00,0.0,WeatherDisplay:10.37,2013-03-11 02:34:00,
2013-03-10 22:39:00,63.4,35.2,29.88,SSW,192,6.7,8.1,35,0.00,OVC,,0.00,0.0,WeatherDisplay:10.37,2013-03-11 02:39:00,
2013-03-10 22:44:00,63.4,35.2,29.88,South,178,2.9,11.5,35,0.00,OVC,,0.00,0.0,WeatherDisplay:10.37,2013-03-11 02:44:00,
2013-03-10 22:49:00,63.4,35.2,29.88,SSE,159,4.3,14.0,35,0.00,OVC,,0.00,0.0,WeatherDisplay:10.37,2013-03-11 02:49:00,
2013-03-10 22:54:00,63.5,35.3,29.88,SSE,161,4.0,8.1,35,0.00,OVC,,0.00,0.0,WeatherDisplay:10.37,2013-03-11 02:54:00,
2013-03-10 22:59:00,63.3,35.2,29.87,SSE,163,3.8,5.8,35,0.00,OVC,,0.00,0.0,WeatherDisplay:10.37,2013-03-11 02:59:00,
2013-03-10 23:04:00,63.2,35.8,29.87,SSE,153,4.5,4.6,36,0.00,OVC,,0.00,0.0,WeatherDisplay:10.37,2013-03-11 03:04:00,
2013-03-10 23:09:00,63.1,35.7,29.87,South,173,5.0,5.8,36,0.00,OVC,,0.00,0.0,WeatherDisplay:10.37,2013-03-11 03:09:00,
2013-03-10 23:14:00,63.0,35.6,29.87,SSE,167,2.9,6.9,36,0.00,OVC,,0.00,0.0,WeatherDisplay:10.37,2013-03-11 03:14:00,
2013-03-10 23:19:00,62.9,35.5,29.86,South,179,6.1,9.2,36,0.00,OVC,,0.00,0.0,WeatherDisplay:10.37,2013-03-11 03:19:00,
2013-03-10 23:24:00,63.1,35.0,29.86,SSE,168,5.9,6.9,35,0.00,OVC,,0.00,0.0,WeatherDisplay:10.37,2013-03-11 03:24:00,
2013-03-10 23:29:00,63.3,35.2,29.86,SE,142,4.5,12.7,35,0.00,OVC,,0.00,0.0,WeatherDisplay:10.37,2013-03-11 03:29:00,
2013-03-10 23:34:00,63.5,34.6,29.86,SSW,197,6.9,9.2,34,0.00,OVC,,0.00,0.0,WeatherDisplay:10.37,2013-03-11 03:34:00,
2013-03-10 23:39:00,63.6,35.4,29.86,SE,142,6.2,10.4,35,0.00,OVC,,0.00,0.0,WeatherDisplay:10.37,2013-03-11 03:39:00,
2013-03-10 23:44:00,63.6,35.4,29.85,SSE,150,7.6,7.6,35,0.00,OVC,,0.00,0.0,WeatherDisplay:10.37,2013-03-11 03:44:00,
2013-03-10 23:49:00,63.7,34.8,29.86,South,186,6.8,18.4,34,0.00,OVC,,0.00,0.0,WeatherDisplay:10.37,2013-03-11 03:49:00,
2013-03-10 23:54:00,63.7,34.8,29.86,South,182,4.9,10.4,34,0.00,OVC,,0.00,0.0,WeatherDisplay:10.37,2013-03-11 03:54:00,
2013-03-10 23:59:00,63.6,35.4,29.86,South,173,6.8,10.0,35,0.00,OVC,,0.00,0.0,WeatherDisplay:10.37,2013-03-11 03:59:00,